Theta_e
312 312 312 310 309 312 312 311 311 308 306 307 307 308 309 310 307 304 304 303 304 306 306 303 301 299 297 296 296 296 295 294 293 293 293 292 292 293 293 293 292 292 291 291
311 312 310 310 308 309 309 310 309 306 305 305 305 307 307 307 308 309 306 304 304 304 303 303 300 297 296 296 296 295 294 293 292 292 292 292 293 294 293 293 291 291 291 291
310 311 308 310 308 309 307 308 308 309 304 303 302 305 303 304 305 307 306 306 306 306 305 303 300 298 296 295 295 295 294 292 292 292 292 291 292 293 292 291 291 291 291 291
310 309 310 309 309 307 311 306 307 307 306 308 304 311 306 306 306 305 306 306 308 307 305 303 302 298 296 295 295 294 293 292 291 291 291 291 291 291 291 290 290 289 289 289
311 307 308 309 309 306 309 304 305 304 304 302 304 304 307 300 304 306 306 308 308 308 306 305 303 301 298 295 295 294 293 291 291 291 291 291 290 290 290 290 289 289 289 289
308 306 305 308 303 305 302 304 302 298 300 305 307 307 306 304 304 305 304 308 308 308 307 305 302 300 298 295 294 293 292 291 290 291 290 290 290 290 289 289 288 288 288 288
310 306 304 305 307 305 305 307 310 309 306 311 299 301 309 305 302 304 305 308 307 306 306 304 302 299 298 295 294 293 292 291 290 290 290 290 289 289 288 287 287 287 288 287
312 313 304 303 308 309 304 307 311 310 307 309 297 305 309 302 305 303 305 304 305 306 306 305 303 301 299 296 294 293 292 290 290 290 290 289 288 288 288 287 287 287 287 286
310 311 303 304 303 305 304 306 305 304 288 302 308 306 304 302 301 298 299 300 303 305 306 305 302 302 299 297 295 293 292 290 290 290 289 288 288 287 287 287 287 287 286 286
311 313 305 301 301 299 302 301 306 304 309 304 308 309 310 306 306 303 300 299 304 306 306 304 303 302 299 297 295 292 291 290 289 289 289 288 288 287 287 287 286 286 286 286
309 313 307 302 302 303 301 302 301 303 304 306 307 310 305 306 305 304 303 305 306 307 308 307 305 302 298 296 293 292 290 289 289 288 288 288 287 287 287 286 286 286 286 286
307 310 314 306 299 298 301 304 305 307 307 302 303 310 305 306 303 302 304 306 307 306 307 306 304 301 299 295 293 291 289 289 288 288 288 287 287 286 286 286 286 286 286 285
306 309 312 313 303 300 301 300 302 302 301 308 307 310 306 303 302 304 302 304 305 306 306 304 301 301 299 295 292 290 289 288 288 288 288 287 286 286 286 286 286 286 285 284
308 308 312 311 309 303 303 300 302 304 309 309 308 309 309 309 307 305 304 306 305 304 305 304 301 300 297 294 292 289 288 288 288 288 287 287 286 286 287 286 286 285 284 283
306 310 310 311 310 306 304 304 304 303 306 308 309 308 308 309 308 308 308 308 307 306 305 304 302 300 296 293 291 289 288 287 287 287 286 286 286 286 286 285 285 283 282 282
302 309 308 311 309 305 306 306 308 306 306 305 305 305 307 308 308 308 308 307 307 305 306 306 304 298 296 293 290 288 287 287 287 286 286 286 286 286 285 284 283 282 282 281
304 307 307 311 308 307 307 308 308 308 308 308 308 308 307 307 306 306 306 307 306 306 306 305 304 302 297 293 290 288 287 287 286 286 286 286 286 285 284 283 282 282 281 280
308 307 308 309 307 310 309 307 306 306 307 306 307 308 308 308 308 308 308 308 307 307 307 306 303 298 293 291 289 288 287 287 286 286 286 286 285 284 283 282 281 280 279 279
308 309 310 310 310 309 308 307 303 304 306 306 306 306 307 307 306 305 307 307 308 307 305 303 302 298 294 289 288 287 286 286 286 286 286 285 284 283 282 280 279 279 278 279
307 308 309 310 310 312 308 307 306 301 307 307 307 307 307 305 305 307 307 306 307 305 302 300 298 295 290 288 287 286 286 286 285 286 285 284 283 282 281 279 278 277 277 278
303 308 309 310 311 310 308 306 303 308 310 309 308 306 306 305 307 308 306 304 304 300 299 297 294 291 288 287 286 286 286 285 285 285 284 283 282 280 279 277 276 276 277 277
310 309 309 310 311 312 307 304 306 309 310 309 309 307 306 307 307 306 306 303 302 301 296 293 290 288 286 286 286 286 285 285 285 284 283 281 280 278 277 276 276 276 276 277
311 310 312 310 310 306 308 308 308 309 309 309 309 309 308 307 307 307 305 300 298 296 294 291 288 286 285 285 286 286 286 285 285 284 281 280 278 277 277 276 276 275 275 275
309 309 310 310 310 306 304 307 309 308 307 309 308 308 307 306 305 304 300 297 296 293 288 288 286 285 285 285 285 285 285 285 284 282 280 278 278 276 276 275 274 274 274 273
310 308 310 309 308 308 309 308 308 308 308 308 308 307 307 305 305 303 300 297 294 294 288 286 285 285 285 285 285 285 285 284 282 279 278 277 276 276 275 274 272 273 273 269
306 307 308 309 309 309 309 310 310 309 308 309 309 306 307 305 303 303 300 295 292 290 287 284 284 285 285 285 285 284 284 282 280 279 277 276 276 275 275 273 273 271 273 273
Wind_Speed
2 2 9 12 8 2 3 4 7 5 4 4 10 15 19 29 23 27 35 34 37 42 40 40 39 38 36 32 30 26 22 18 16 14 12 10 9 11 13 16 18 20 22 25
3 11 9 5 4 5 4 4 7 7 1 6 9 17 17 17 25 30 32 30 37 35 37 39 43 41 40 36 32 28 24 20 17 15 14 12 11 13 15 17 18 20 22 26
8 4 6 6 4 6 5 6 5 8 5 3 7 9 7 6 12 29 30 34 30 32 33 35 44 47 43 40 35 30 25 21 19 17 15 14 13 15 17 18 19 21 24 27
7 3 7 4 6 8 4 6 2 3 3 4 4 14 3 6 11 8 21 24 26 28 28 29 37 48 48 43 35 31 27 25 22 19 16 16 15 17 19 22 23 24 25 27
8 7 5 5 8 9 6 3 4 1 3 3 4 5 4 4 8 16 9 22 24 23 24 26 31 39 48 43 38 33 30 27 23 19 17 16 16 19 21 24 26 26 28 30
6 0 6 6 3 2 6 4 4 3 2 2 8 9 6 6 9 9 8 21 16 14 16 22 25 30 44 44 40 37 32 28 24 20 18 17 18 20 23 25 28 30 32 35
1 5 3 4 5 3 2 5 4 5 2 8 4 2 15 6 11 12 11 19 15 15 18 22 26 31 38 48 45 40 35 31 26 20 19 18 19 21 24 26 29 31 35 36
5 11 9 6 8 8 7 9 6 9 4 15 2 8 10 15 19 16 23 24 21 19 20 21 24 28 34 47 47 42 36 31 26 22 20 18 19 21 24 26 29 32 36 38
8 9 2 2 3 3 6 6 2 5 2 3 6 14 6 7 10 8 19 19 23 20 21 23 24 28 33 43 48 43 37 32 28 23 18 18 19 21 24 26 29 33 36 39
6 5 3 3 4 2 5 5 3 2 3 6 12 22 18 10 15 11 11 23 32 23 21 23 25 28 34 39 46 41 37 33 26 21 18 17 19 22 24 27 29 33 36 38
6 7 3 4 10 13 4 4 2 2 4 6 10 19 5 7 10 11 14 24 24 20 21 24 26 28 32 39 45 43 37 32 24 20 17 18 19 21 23 27 30 34 37 39
7 5 8 14 1 1 3 11 13 6 8 5 2 25 2 1 7 7 11 13 16 18 19 24 27 29 34 41 47 44 37 30 25 21 18 18 19 21 23 27 31 34 38 40
9 4 2 8 2 4 6 8 8 2 1 21 7 25 5 7 8 17 14 18 21 22 23 28 30 33 37 44 49 43 37 31 25 20 18 17 19 21 24 28 31 34 38 39
19 7 11 21 18 6 6 8 18 21 16 17 27 34 38 32 21 13 16 27 32 31 33 34 34 36 38 45 49 43 36 29 24 20 17 17 19 22 25 29 32 34 36 38
8 10 12 21 25 6 4 8 18 20 31 21 28 22 38 32 21 26 32 38 36 32 33 34 36 37 39 43 46 41 34 28 23 18 16 16 18 22 26 30 32 33 35 37
1 9 6 23 23 6 6 20 26 24 34 21 22 32 43 30 34 35 39 37 37 37 45 40 35 35 39 41 48 42 34 27 21 17 15 16 18 23 26 28 31 33 35 37
7 8 9 24 22 11 5 36 29 33 35 22 28 41 31 28 26 32 39 40 43 40 42 35 34 34 36 40 48 41 33 25 19 15 13 15 19 22 24 27 29 31 34 36
19 16 11 16 8 17 21 20 24 31 31 20 28 32 30 30 42 50 33 45 40 43 41 34 28 29 33 36 45 38 31 23 17 13 12 14 19 21 24 25 27 30 33 34
26 20 10 9 15 19 13 20 11 15 21 31 18 28 32 39 20 40 35 46 45 46 38 29 27 31 33 38 43 34 27 19 14 10 10 14 17 19 23 24 26 28 32 33
26 27 17 12 9 13 21 34 28 4 20 39 30 32 33 15 9 22 33 17 20 25 25 25 28 30 33 43 38 31 23 18 12 8 10 13 15 18 21 24 26 27 29 33
6 11 24 24 18 11 15 16 14 7 26 32 18 25 22 15 23 37 26 19 16 21 21 24 29 34 42 41 34 27 21 16 10 6 9 11 14 17 20 21 25 28 28 30
19 11 9 13 13 19 18 9 19 31 42 33 34 26 22 34 39 39 36 27 23 24 25 29 36 42 44 38 32 26 20 13 6 6 8 9 12 15 19 21 24 26 28 31
18 20 21 16 9 8 20 24 52 52 39 39 27 26 33 35 39 38 38 33 28 26 32 35 42 47 42 37 32 27 21 14 8 6 6 7 10 13 16 19 22 24 27 31
15 22 19 24 24 13 16 36 42 46 48 58 37 36 31 36 37 36 35 33 31 31 35 42 48 47 43 36 31 24 19 13 9 6 4 5 7 10 14 18 21 23 26 30
4 1 14 21 23 25 34 38 43 45 42 40 40 36 44 39 40 37 36 39 40 39 42 48 49 46 41 36 29 24 18 13 8 5 3 4 7 10 12 16 18 21 22 22
21 23 19 24 24 22 29 40 45 45 43 48 49 47 54 47 46 41 39 45 44 46 49 52 50 44 38 34 29 22 16 11 8 5 2 2 6 11 13 12 11 16 19 20
Wind_Direction
142 119 214 212 201 175 170 201 235 251 232 219 245 251 258 273 255 256 256 245 247 244 242 233 229 226 223 224 226 229 232 236 240 243 250 264 284 301 312 321 318 318 318 320
56 231 204 139 152 159 170 212 259 283 223 194 271 261 263 252 259 259 258 250 256 254 244 235 227 223 224 227 226 226 230 235 238 241 249 261 280 296 314 317 314 314 318 316
173 226 110 135 149 165 206 194 231 237 333 249 301 265 236 285 249 264 258 258 260 254 248 238 226 223 222 222 223 226 230 234 238 242 251 264 281 297 307 308 314 316 315 313
227 219 159 164 213 151 228 209 222 288 16 257 18 294 215 242 273 257 261 249 251 249 247 243 232 224 223 222 223 226 228 232 236 241 251 266 283 296 306 313 316 316 314 313
237 165 163 186 218 162 225 127 141 124 216 12 244 267 225 12 272 264 263 258 251 253 251 248 241 234 228 224 222 225 230 233 236 244 255 270 286 297 309 310 310 313 316 314
255 300 172 199 70 139 135 97 70 66 105 260 226 202 168 184 210 255 258 257 253 251 255 253 248 239 229 222 222 224 228 233 238 248 259 273 288 299 305 309 315 319 318 315
262 211 171 166 100 24 105 71 324 315 338 247 135 238 257 234 228 220 231 244 244 263 254 244 237 232 227 220 221 222 225 230 235 246 262 276 289 299 306 316 317 318 315 315
186 265 178 184 197 180 174 167 170 242 239 286 55 243 272 220 239 224 242 259 259 246 245 243 239 237 231 221 221 224 225 229 235 246 259 276 289 300 309 312 313 316 317 317
182 267 112 195 145 147 182 190 170 98 137 309 243 264 281 225 253 245 242 239 242 245 245 247 240 237 235 224 222 225 225 229 236 247 261 277 292 302 306 312 316 316 317 318
219 278 187 148 131 69 176 157 84 4 257 253 267 274 272 216 236 232 244 233 243 244 243 245 240 240 238 228 223 224 226 230 235 246 261 276 290 299 307 313 316 314 315 317
160 183 214 133 206 176 142 198 192 169 164 200 268 269 194 204 202 212 236 245 239 226 249 241 242 247 237 226 221 223 223 227 236 248 263 278 289 298 307 312 313 315 316 315
205 169 225 227 353 113 184 197 179 197 230 240 215 268 60 220 193 218 246 246 217 248 251 243 249 240 232 221 222 221 220 226 235 245 260 277 290 298 306 313 315 318 315 313
175 220 255 261 355 358 212 197 215 255 269 231 199 258 160 203 230 224 241 246 254 253 249 251 244 239 232 222 220 217 218 223 234 246 260 276 289 302 310 314 316 315 313 313
169 175 207 237 249 132 189 199 214 217 240 237 233 259 275 259 271 262 257 273 265 262 263 255 244 239 230 223 218 215 217 222 232 245 260 277 293 305 311 314 316 316 316 317
174 236 230 251 261 226 192 240 221 217 238 228 254 247 257 272 265 270 269 268 268 264 258 254 247 241 230 224 214 214 217 221 231 245 263 282 297 306 312 316 319 321 321 321
178 250 263 255 259 242 237 255 258 250 251 256 260 263 257 279 283 282 276 272 273 270 270 266 254 241 233 225 212 209 214 221 229 244 266 283 300 310 317 321 325 326 323 323
192 238 251 259 266 259 264 247 261 265 266 261 259 257 273 265 264 261 265 271 268 268 266 263 249 242 235 224 210 206 211 218 229 246 267 292 306 315 322 327 327 326 324 323
238 237 242 251 243 240 248 264 258 256 264 254 253 264 267 264 264 266 263 264 268 268 270 264 246 233 223 217 203 203 207 213 224 241 271 298 312 321 326 327 327 327 325 323
215 228 242 240 231 252 304 259 208 235 262 259 255 259 260 267 274 276 262 265 270 273 274 259 237 224 217 202 196 197 201 208 217 243 281 307 317 324 323 326 327 328 324 324
228 213 217 214 231 232 236 250 241 115 271 262 245 253 262 262 263 272 287 268 255 256 246 233 219 210 201 189 191 193 197 204 214 246 293 309 315 321 324 328 327 328 325 327
175 211 220 223 235 233 229 240 123 205 251 260 242 230 243 232 231 251 258 256 246 235 224 216 207 197 186 184 185 188 193 200 215 259 295 307 317 324 324 328 331 328 328 333
221 194 204 228 239 248 217 165 203 230 246 257 264 238 213 232 241 239 248 251 228 215 206 202 195 184 181 181 182 184 189 195 216 272 296 308 319 325 326 331 332 329 335 340
232 216 225 207 216 217 196 216 221 236 242 259 260 256 236 237 240 239 238 231 222 212 204 195 190 180 179 178 180 184 184 188 209 252 284 304 321 321 326 332 333 336 343 349
220 236 244 253 253 242 226 224 233 230 234 248 258 262 258 237 240 238 230 221 214 210 201 189 184 182 178 178 178 182 183 190 205 218 248 285 307 323 336 339 339 345 351 354
243 76 249 258 262 263 259 247 244 246 245 251 258 258 258 248 245 241 231 222 212 203 198 189 186 186 180 176 178 180 185 195 200 197 218 297 327 344 350 350 348 354 358 354
259 255 255 257 251 242 254 257 259 256 258 259 260 257 258 252 247 241 236 225 211 198 191 187 186 185 181 177 177 180 186 193 193 196 205 327 343 349 348 0 15 1 -0 359